[[{"header":{"parameterUnit":"m.s-1","parameterCategory":1,"la1":30.2991,"la2":30.254,"lo1":-89.0895,"lo2":-89.0444,"dy":0.0017,"dx":0.0017,"nx":28,"ny":28,"refTime":"2025-09-07T03:00:00:Z","depth":0,"parameterNumber":2,"parameterNumberName":"U-component_of_WINDS"},"data":[0,0,0,0,0,0,0,0,0,0,0,0,0,0,0,0,0,0,0,0,0,0,0,0,0,0,0,0,0,0,0,0,0,0,0,0,0,0,0,0,0,0,0,0,0,0,0,0,0,0,0,0,0,0,0,0,0,0,-2.0761,-2.0761,0,-2.0819,-2.0819,-2.082,-2.0839,-2.0839,-2.0838,-2.0838,-2.0897,-2.0899,-2.09,0,0,0,0,0,0,0,0,0,0,0,0,0,-2.0664,-2.0665,-2.076,-2.0761,-2.0762,-2.0819,-2.0819,-2.082,-2.0839,-2.0838,-2.0838,-2.0838,-2.0896,-2.0898,-2.0901,0,0,0,0,0,0,0,0,0,0,0,0,0,-2.0712,-2.0666,-2.076,-2.0778,-2.078,-2.0818,-2.0819,-2.082,-2.0839,-2.0838,-2.0838,-2.0838,-2.0896,-2.0898,-2.0901,-2.0925,0,0,-2.0909,-2.091,0,0,0,0,0,0,0,0,-2.0709,-2.0716,-2.0775,-2.0777,-2.0779,-2.0821,-2.0807,-2.0856,-2.0839,-2.0817,-2.0838,-2.0838,-2.0872,-2.0877,-2.0888,-2.0928,-2.0931,-2.0909,-2.0911,-2.0912,-2.0913,0,0,0,0,0,0,0,-2.0706,-2.0713,-2.0783,-2.0776,-2.0778,-2.0782,-2.0789,-2.0816,-2.0846,-2.0819,-2.082,-2.0827,-2.0873,-2.0886,-2.089,-2.0932,-2.0909,-2.0912,-2.0913,-2.0914,-2.0993,-2.0993,0,0,0,0,0,0,-2.07,-2.071,-2.0782,-2.0785,-2.0743,-2.0785,-2.0792,-2.0808,-2.0845,-2.0851,-2.0827,-2.0827,-2.0881,-2.0887,-2.0892,-2.0922,-2.0912,-2.0915,-2.0916,-2.0992,-2.0993,-2.0993,0,0,0,0,0,0,-2.0698,-2.0706,-2.0779,-2.0748,-2.0758,-2.0787,-2.0805,-2.0809,-2.0822,-2.0852,-2.0857,-2.0834,-2.0881,-2.0888,-2.0917,-2.0924,-2.0916,-2.0918,-2.0992,-2.0993,-2.0993,-2.0983,0,0,0,0,0,0,-2.0695,-2.0705,-2.0715,-2.0748,-2.0759,-2.0803,-2.0805,-2.0811,-2.0827,-2.0828,-2.086,-2.0865,-2.0881,-2.0912,-2.0919,-2.0928,-2.0921,-2.0991,-2.0992,-2.0993,-2.0983,-2.0983,-2.0984,0,0,0,0,0,-2.0691,-2.071,-2.0716,-2.0724,-2.0773,-2.0804,-2.081,-2.0829,-2.0827,-2.0837,-2.0856,-2.0864,-2.0922,-2.0915,-2.0923,-2.0933,-2.0991,-2.0992,-2.0993,-2.0983,-2.0983,-2.0984,0,0,0,0,0,0,-2.0678,-2.0715,-2.0721,-2.0752,-2.0774,-2.0807,-2.082,-2.0829,-2.0852,-2.0852,-2.0874,-2.0881,-2.0907,-2.0923,-2.0914,-2.0958,-2.0957,-2.096,-2.0947,-2.0947,-2.0948,-2.0943,-2.0923,0,0,0,0,0,-2.0678,-2.0701,-2.0732,-2.0756,-2.0767,-2.0791,-2.0806,-2.0818,-2.0842,-2.0852,-2.0873,-2.0896,-2.0919,-2.0934,-2.0958,-2.0985,-2.0992,-2.0996,-2.0996,-2.0996,-2.0998,-2.1013,-2.1015,-2.0997,-2.0997,-2.0997,0,0,-2.0679,-2.0703,-2.0716,-2.0754,-2.0773,-2.0795,-2.0799,-2.0823,-2.0839,-2.0855,-2.0883,-2.0899,-2.0926,-2.0954,-2.0968,-2.0968,-2.1005,-2.0998,-2.0998,-2.1,-2.1014,-2.1016,-2.1017,-2.0997,-2.0997,-2.0997,0,0,-2.0693,-2.0713,-2.0735,-2.0753,-2.0782,-2.0798,-2.0803,-2.0834,-2.0845,-2.0874,-2.0886,-2.0905,-2.0945,-2.0964,-2.0978,-2.0997,-2.1005,-2.1004,-2.1006,-2.1021,-2.1022,-2.1023,-2.1029,-2.1031,-2.1006,-2.1006,-2.1006,0,-2.0691,-2.0725,-2.0744,-2.0767,-2.0783,-2.0798,-2.0819,-2.0836,-2.0871,-2.0881,-2.0881,-2.0931,-2.095,-2.0982,-2.0986,-2.0998,-2.1004,-2.1,-2.102,-2.1022,-2.1023,-2.1029,-2.1031,-2.1006,-2.1006,-2.1006,-2.1006,0,-2.072,-2.0744,-2.0758,-2.079,-2.0808,-2.083,-2.0851,-2.0867,-2.0877,-2.0892,-2.092,-2.0944,-2.0972,-2.098,-2.0991,-2.1013,-2.1012,-2.1016,-2.1016,-2.1024,-2.103,-2.1033,-2.1005,-2.1005,-2.1005,-2.1005,0,0,-2.0728,-2.077,-2.0775,-2.0789,-2.0821,-2.0839,-2.0861,-2.0888,-2.09,-2.0923,-2.0942,-2.0975,-2.0978,-2.0994,-2.1007,-2.1019,-2.1031,-2.1021,-2.1022,-2.1022,-2.1057,-2.1053,-2.1056,-2.1037,-2.1037,-2.1038,-2.1054,0,-2.0745,-2.0785,-2.0802,-2.0834,-2.0855,-2.0869,-2.0888,-2.0909,-2.0924,-2.0944,-2.0961,-2.0983,-2.0986,-2.0996,-2.1009,-2.1027,-2.1039,-2.1026,-2.1054,-2.1054,-2.1046,-2.1059,-2.1056,-2.107,-2.1057,-2.1057,-2.1057,0,-2.077,-2.0793,-2.0827,-2.0855,-2.0865,-2.0881,-2.0907,-2.0926,-2.095,-2.096,-2.0977,-2.0989,-2.1012,-2.101,-2.1041,-2.1032,-2.1044,-2.1055,-2.1056,-2.1059,-2.1056,-2.1062,-2.1076,-2.1078,-2.1061,-2.1061,-2.1061,0,-2.0771,-2.081,-2.0835,-2.0847,-2.0881,-2.0892,-2.0907,-2.093,-2.0945,-2.0967,-2.0977,-2.1001,-2.1014,-2.1033,-2.1051,-2.1048,-2.108,-2.108,-2.1088,-2.1088,-2.1094,-2.1094,-2.111,-2.1103,-2.1103,-2.1103,-2.1103,0,-2.0788,-2.0808,-2.0835,-2.0851,-2.0873,-2.0892,-2.0914,-2.0929,-2.095,-2.0968,-2.0982,-2.0998,-2.1021,-2.104,-2.1054,-2.1077,-2.1084,-2.1092,-2.1095,-2.1091,-2.1089,-2.1099,-2.1098,-2.1103,-2.1103,-2.1103,-2.1103,0,-2.0792,-2.0812,-2.084,-2.0869,-2.0877,-2.0892,-2.0917,-2.0932,-2.0947,-2.097,-2.0976,-2.1,-2.1024,-2.1043,-2.1074,-2.1083,-2.1107,-2.1112,-2.1099,-2.1101,-2.1108,-2.1107,-2.1131,-2.1134,-2.1125,-2.1125,-2.1125,0,-2.0801,-2.0817,-2.0848,-2.0861,-2.0875,-2.0896,-2.0911,-2.093,-2.0945,-2.0973,-2.0984,-2.1008,-2.1029,-2.1066,-2.1086,-2.1109,-2.1114,-2.112,-2.1117,-2.1112,-2.1113,-2.1112,-2.1113,-2.112,-2.112,-2.112,-2.112,0,-2.0815,-2.0824,-2.0845,-2.0869,-2.0886,-2.0906,-2.0927,-2.0936,-2.0959,-2.0975,-2.0999,-2.1015,-2.1046,-2.1069,-2.1095,-2.1109,-2.1119,-2.1121,-2.1124,-2.1119,-2.1111,-2.1115,-2.1099,-2.112,-2.112,-2.112,-2.112,-2.112,-2.0822,-2.0836,-2.086,-2.0882,-2.09,-2.0918,-2.0933,-2.095,-2.097,-2.0997,-2.1007,-2.1031,-2.1054,-2.1089,-2.1103,-2.1122,-2.1124,-2.1128,-2.113,-2.113,-2.1129,-2.1108,-2.1127,-2.1127,-2.1127,-2.1127,-2.1127,0,-2.0836,-2.0852,-2.0873,-2.09,-2.0918,-2.0924,-2.0947,-2.0961,-2.0982,-2.1003,-2.1022,-2.1049,-2.1072,-2.1093,-2.1117,-2.1128,-2.1133,-2.1134,-2.1133,-2.1136,-2.1127,-2.1122,-2.113,-2.113,-2.113,-2.113,-2.113,-2.113,-2.0846,-2.087,-2.0881,-2.0913,-2.0928,-2.0952,-2.0964,-2.0981,-2.0997,-2.1027,-2.1045,-2.1059,-2.108,-2.1105,-2.1126,-2.1132,-2.114,-2.114,-2.1146,-2.1137,-2.1137,-2.1137,-2.1132,-2.1141,-2.1141,-2.1154,-2.1154,-2.1154]},{"header":{"parameterUnit":"m.s-1","parameterCategory":1,"la1":30.2991,"la2":30.254,"lo1":-89.0895,"lo2":-89.0444,"dy":0.0017,"dx":0.0017,"nx":28,"ny":28,"refTime":"2025-09-07T03:00:00:Z","depth":0,"parameterNumber":3,"parameterNumberName":"V-component_of_WINDS"},"data":[0,0,0,0,0,0,0,0,0,0,0,0,0,0,0,0,0,0,0,0,0,0,0,0,0,0,0,0,0,0,0,0,0,0,0,0,0,0,0,0,0,0,0,0,0,0,0,0,0,0,0,0,0,0,0,0,0,0,-1.0909,-1.0909,0,-1.0895,-1.0895,-1.0895,-1.0958,-1.096,-1.0962,-1.0964,-1.0942,-1.094,-1.0938,0,0,0,0,0,0,0,0,0,0,0,0,0,-1.0983,-1.0982,-1.0909,-1.0909,-1.0909,-1.0895,-1.0895,-1.0895,-1.0958,-1.096,-1.0962,-1.0964,-1.0943,-1.094,-1.0938,0,0,0,0,0,0,0,0,0,0,0,0,0,-1.0958,-1.0981,-1.0909,-1.0939,-1.0941,-1.0895,-1.0895,-1.0895,-1.0957,-1.096,-1.0963,-1.0966,-1.0944,-1.0941,-1.0937,-1.086,0,0,-1.0927,-1.0925,0,0,0,0,0,0,0,0,-1.0959,-1.0955,-1.0935,-1.0937,-1.0939,-1.0931,-1.0913,-1.0883,-1.0957,-1.0951,-1.0964,-1.0967,-1.0936,-1.0933,-1.0924,-1.0859,-1.0858,-1.0926,-1.0924,-1.0923,-1.0922,0,0,0,0,0,0,0,-1.0961,-1.0956,-1.0903,-1.0934,-1.0937,-1.095,-1.095,-1.0908,-1.0928,-1.0952,-1.0956,-1.0954,-1.0938,-1.0928,-1.0924,-1.0858,-1.0927,-1.0923,-1.0921,-1.092,-1.0726,-1.0723,0,0,0,0,0,0,-1.096,-1.0957,-1.0904,-1.0903,-1.0957,-1.0947,-1.0946,-1.0931,-1.0928,-1.0931,-1.0952,-1.0957,-1.0932,-1.0928,-1.0924,-1.0833,-1.0923,-1.092,-1.0918,-1.0729,-1.0725,-1.0722,0,0,0,0,0,0,-1.0961,-1.0955,-1.0904,-1.0931,-1.0926,-1.0943,-1.0925,-1.0929,-1.0919,-1.0929,-1.0932,-1.0938,-1.0934,-1.0929,-1.0875,-1.0833,-1.0918,-1.0915,-1.0733,-1.0728,-1.0723,-1.0649,0,0,0,0,0,0,-1.0963,-1.0955,-1.0927,-1.093,-1.0924,-1.0858,-1.0922,-1.0927,-1.0914,-1.0921,-1.0917,-1.0919,-1.0936,-1.088,-1.0872,-1.0829,-1.0912,-1.0736,-1.073,-1.0725,-1.0656,-1.0643,-1.0632,0,0,0,0,0,-1.0966,-1.0906,-1.0926,-1.0919,-1.0891,-1.0856,-1.0852,-1.0875,-1.091,-1.0882,-1.0887,-1.0919,-1.0838,-1.0874,-1.0865,-1.0821,-1.0739,-1.0732,-1.0725,-1.0661,-1.0645,-1.0632,0,0,0,0,0,0,-1.0895,-1.0907,-1.0929,-1.0869,-1.0861,-1.0867,-1.0832,-1.0858,-1.0839,-1.0846,-1.0873,-1.0871,-1.0813,-1.0811,-1.0851,-1.0745,-1.0795,-1.0785,-1.0749,-1.0734,-1.0722,-1.0723,-1.0909,0,0,0,0,0,-1.0873,-1.0846,-1.0857,-1.0802,-1.0798,-1.0815,-1.08,-1.0819,-1.0811,-1.0808,-1.081,-1.0799,-1.0771,-1.0752,-1.0727,-1.0655,-1.0654,-1.062,-1.0608,-1.0598,-1.059,-1.0551,-1.0535,-1.0699,-1.0699,-1.0699,0,0,-1.0827,-1.083,-1.081,-1.0788,-1.0785,-1.0754,-1.0812,-1.0777,-1.0753,-1.0802,-1.0752,-1.0752,-1.0742,-1.0679,-1.0651,-1.0676,-1.0545,-1.0589,-1.0582,-1.0579,-1.0542,-1.0526,-1.0513,-1.0694,-1.0695,-1.0696,0,0,-1.0726,-1.0726,-1.0681,-1.0676,-1.067,-1.0682,-1.0671,-1.0672,-1.0675,-1.0626,-1.0661,-1.0632,-1.0584,-1.0575,-1.0564,-1.0458,-1.0485,-1.0448,-1.0386,-1.0347,-1.0334,-1.0323,-1.0284,-1.027,-1.044,-1.044,-1.044,0,-1.0669,-1.0626,-1.0654,-1.0616,-1.0605,-1.0649,-1.0601,-1.0594,-1.0579,-1.0569,-1.0598,-1.0538,-1.0534,-1.0469,-1.0443,-1.0432,-1.0419,-1.045,-1.0334,-1.0323,-1.0313,-1.0276,-1.0262,-1.0436,-1.0436,-1.0437,-1.0437,0,-1.0555,-1.0524,-1.0488,-1.0475,-1.0459,-1.0416,-1.0435,-1.0415,-1.0434,-1.0442,-1.039,-1.0387,-1.0361,-1.0347,-1.0365,-1.0283,-1.0299,-1.033,-1.038,-1.0292,-1.0259,-1.0245,-1.0429,-1.0431,-1.0432,-1.0433,0,0,-1.0412,-1.0414,-1.04,-1.0394,-1.0389,-1.0365,-1.0323,-1.0301,-1.0282,-1.0269,-1.0234,-1.0192,-1.0221,-1.0208,-1.0224,-1.019,-1.0105,-1.0226,-1.0226,-1.0203,-1.0014,-0.9991,-0.9975,-1.0123,-1.0121,-1.0119,-1.0015,0,-1.0313,-1.0246,-1.0268,-1.0198,-1.0169,-1.0209,-1.0172,-1.0164,-1.017,-1.0144,-1.0149,-1.0118,-1.0159,-1.0151,-1.0119,-1.0123,-1.0068,-1.013,-1.0089,-1.0087,-1.0091,-0.9957,-0.9933,-0.9836,-1.0002,-1.0,-0.9998,0,-1.019,-1.0175,-1.0102,-1.0102,-1.009,-1.0058,-1.0038,-1.0013,-1.0003,-1.001,-0.9995,-1.0018,-0.9974,-1.0024,-0.9963,-1.0005,-0.9989,-0.9988,-0.9984,-0.9982,-1.0038,-0.9951,-0.9805,-0.979,-0.9978,-0.9979,-0.9981,0,-1.0093,-1.0053,-1.0005,-0.9998,-0.9996,-0.9972,-0.997,-0.9963,-0.9948,-0.9929,-0.9919,-0.9894,-0.9881,-0.986,-0.9875,-0.991,-0.9811,-0.9862,-0.9813,-0.9813,-0.9791,-0.9792,-0.9641,-0.978,-0.978,-0.9781,-0.9781,0,-0.9981,-0.9935,-0.9961,-0.9931,-0.9879,-0.9904,-0.9852,-0.9854,-0.9847,-0.9816,-0.9848,-0.9818,-0.9839,-0.981,-0.9821,-0.9768,-0.9761,-0.9764,-0.9767,-0.9761,-0.9761,-0.9751,-0.9758,-0.9777,-0.9778,-0.9778,-0.9779,0,-0.9864,-0.988,-0.9829,-0.9832,-0.9831,-0.9793,-0.9794,-0.9765,-0.9772,-0.9733,-0.9725,-0.9735,-0.9702,-0.9715,-0.9679,-0.9686,-0.9619,-0.9631,-0.9623,-0.9626,-0.9576,-0.9581,-0.9414,-0.9392,-0.9545,-0.9543,-0.9542,0,-0.9792,-0.9758,-0.9757,-0.974,-0.9736,-0.9707,-0.9692,-0.9713,-0.9695,-0.9681,-0.9653,-0.9623,-0.9601,-0.9545,-0.9548,-0.9521,-0.9532,-0.9475,-0.9528,-0.9523,-0.9531,-0.9533,-0.9529,-0.9465,-0.9463,-0.9462,-0.9461,0,-0.9662,-0.9672,-0.965,-0.9629,-0.961,-0.9595,-0.9582,-0.9565,-0.9586,-0.9563,-0.9531,-0.9514,-0.9478,-0.9447,-0.9422,-0.9416,-0.9441,-0.9444,-0.9431,-0.9425,-0.9422,-0.9422,-0.9594,-0.9448,-0.9449,-0.945,-0.9451,-0.9451,-0.9566,-0.9537,-0.9532,-0.9505,-0.9498,-0.9485,-0.9457,-0.9461,-0.9436,-0.941,-0.9423,-0.9385,-0.9374,-0.9343,-0.9334,-0.9303,-0.9325,-0.9306,-0.9301,-0.9297,-0.929,-0.9426,-0.9298,-0.9299,-0.9299,-0.9299,-0.93,0,-0.9438,-0.9436,-0.9412,-0.9393,-0.9372,-0.9398,-0.9385,-0.9364,-0.9331,-0.932,-0.9297,-0.9259,-0.9229,-0.9229,-0.92,-0.9175,-0.9185,-0.9166,-0.9169,-0.9167,-0.9272,-0.9287,-0.9159,-0.9159,-0.9159,-0.9159,-0.9159,-0.9159,-0.9369,-0.9321,-0.9329,-0.9277,-0.9275,-0.924,-0.923,-0.9217,-0.9208,-0.9165,-0.9141,-0.9142,-0.9134,-0.9104,-0.9077,-0.9078,-0.9065,-0.9042,-0.9047,-0.9145,-0.916,-0.9173,-0.9186,-0.9039,-0.9039,-0.8944,-0.8943,-0.8942]}]]